Timeline UpdatesTrip UpdatesNews PostsPvt Posts♥♥Travel TipsAdmin PostsConv PostsFollowed PostsChat RequestsBlog PostsPNR Posts

Disclaimer
Search
 
 
Sat Nov 1, 2014 16:06:16 ISTHomeTrainsΣChainsAtlasPNRForumGalleryNewsFAQTripsMembersLoginFeedback
No Recent News for this Train
Other Trains in the News **new
Latest...
Renumbered as 22646 wef 12/7/14
Tue May 13, 2014 (02:58PM)
⇐ Return Journey: Train# 22645

16326⇒22646/Ahilya Nagari Express

Time-Table HAS CHANGED.
Sep 01 2014 (11:35PM)
Change Departure Station:
Change Arrival Station:
Post a Train Travel TipPost a Train Travel Tip **new
Post a Comment/Question/Picture/VideoPost a Comment/Question/Picture/Video
Pantry/Catering
✓ Pantry Car Avbl
✓ Catering Avbl
Loco/Rake Reversals
UJN/Ujjain Junction (8); MAS/Chennai Central (12); SRR/Shoranur Junction (7);
RSA - Rake Sharing
22641/22642)<-->(22645/22646)<-->(22647/22648) <--> (12643/2644); Entry# 1149704
Rake/Coach Composition
Loco-Gen-Gen-S11-S10-S9-S8-S7-S6-S5-S4-S3-S2-PC-S1-A1-B2-B1-Gen-HCPV-SLRD
Loco
WAP 4 RPM/ED
News    PNR    Forum    Time-Table    Availability    Fare Chart    Map    Arr/Dep History    Trips    Gallery    ΣChains    X/O    Timeline    
Travel Time: 0h 43m    0 halts    Distance: 50 km    Avg Speed: 69 km/hr
Type: SuperFast
Zone: SR/Southern
Departs @ 15:25 (Avg 6m late)
Platform# ???
      S
Coimbatore Main Junction/CBE 
Arrives @ 16:08 (Avg 11m late)
Platform# 2
      S
Tiruppur/TUP 

0 halts. 7 intermediate Stations between Coimbatore Main Junction and Tiruppur

Show ALL intermediate Stations  Show Old Time-Table

#TrkCodeStation NameX/OArrivesAvgDepartsAvgHaltPFDay#KmSpeedElevZoneAddress
1/==/TVCTrivandrum Central (5)  -06:15+0--1-413.27012mSRThiruvananthapuram 695001, Kerala
2/==/QLNKollam Junction (6)X  07:10+1007:15+95m21-348.67416mSRKollam 0474-2746194, Kerala
3/==/KYJKayamkulam Junction (5)X  07:48+1307:50+132m--1-307.85711mSRAlappuzha Ph;0479-2442042, Kerala
4/==%HADHarippad (2)  08:04+1608:06+222m11-294.5607mSRHaripad 0479-2412714, Kerala
5%=-/AMPAAmbalappuzha (1)  08:24+2508:26+242m11-276.6616mSRph 0477-2272620, Kerala
6/--/ALLPAlappuzha (3)  08:37 08:38+2508:40+253 2m11-264.4668mSRPh:0477-2253965, Kerala
7/--/SRTLCherthala (3)X  09:01 09:02+2409:03+242 1m21-240.3327mSRPh: 0478- 2812500, Kerala
8/-=/ERSErnakulam Junction (South) (6)  10:05+910:10+155m31-206.9423mSRErnakulam 682016, Kerala
9/==/AWYAluva (3)X  10:38+1110:40+122m31-187.55512mSRPh: 0484-2624141, Kerala
10/==/AFKAngamaly for Kalady (3)X  10:50+1410:52+142m--1-178.37616mSRPhone: 0484-2452340, Kerala
11/==/CKIChalakkudy (3)  11:04+1711:06+172m21-163.0779mSRPh: 0480- 2701368, Kerala
12/==/IJKIrinjalakkuda (2)X  11:11+2011:13+202m--1-156.64718mSRKalletumkara, Kerala
13/==/TCRThrissur (4)  11:42 11:43+1811:45+203 2m21-132.9586mSRThrissur Tel: 0487 2423150, Kerala
14/==/WKIWadakkanchery (2)X  12:02+2012:04+202m21-116.51940mSRWadackanchery, Kerala
15/==/SRRShoranur Junction (7)12:55+113:05+1510m41-99.94326mSRShoranur ph.no 0466-2222913, Kerala
16/==/OTPOttappalam (2)X  13:23+1513:25+152m--1-87.15430mSROttapalam, Kerala
17/==/PGTPalakkad Junction (4)X  14:00+514:05+55m21-55.34484mSRPalghat Tel: 0491 2555231, Kerala
18/==/CBECoimbatore Main Junction (6)»  15:20-215:25+65m--10.070416mSRCoimbatore 641001, Tamil Nadu
19/==/TUPTiruppur (2)•  16:08+1116:10+112m2150.555305mSRTiruppur. Ph:0421-2200450, Tamil Nadu
20/==/EDErode Junction (4)X  17:05-317:15+810m11100.774175mSRErode ph.no: 0424-2256111, Tamil Nadu
21/==/SASalem Junction (6)  18:05+1218:10+125m--1162.074283mSRSalem, Tamil Nadu
22/==/JTJJolarpettai Junction (5)X  19:48+719:50+72m21282.380405mSRJolarpettai, Tamil Nadu
23/==/KPDKatpadi Junction (5)X  20:53+1120:55+112m21366.160213mSRVellore 632007, Tamil Nadu
24/==/MASChennai Central (12)X23:05+823:25+1020m61495.6639mSRChennai 600003, Tamil Nadu
25/==/GDRGudur Junction (3)X  01:35+1001:37+102m22632.99219mSCRGudur, Andhra Pradesh
26/==/NLRNellore (4)  02:01 02:02+1802:03+182 1m22671.48121mSCRNellore, Andhra Pradesh
27/==/OGLOngole (3)  03:28 03:29+2603:30+262 1m12788.28512mSCROngole, Andhra Pradesh
28/==/CLXChirala (4)X  04:04 04:05+2904:06+292 1m--2837.5728mSCRChirala, Andhra Pradesh
29/==/TELTenali Junction (5)XO  04:53 04:54+1604:55+172 1m42895.22716mSCRTel: 08644-227834, Andhra Pradesh
30/==/BZAVijayawada Junction (10)X  06:05+006:20+115m102926.48624mSCRVijayawada 520001, Andhra Pradesh
31/==/KMTKhammam (2)  07:30+2707:32+272m221026.860118mSCRKhammam 507001, Telangana
32/==/WLWarangal (3)O  09:20+2009:22+242m321134.483271mSCRWarangal., Telangana
33/==/RDMRamagundam (3)  10:34 10:35+3110:36+312 1m121235.575170mSCRKarimnagar Dist. Ph : 08728 - 255237, Telangana
34/==/MCIManchiryal (3)X  10:46 10:47+3510:48+372 1m121249.357159mSCRAdilabad Dist., Telangana
35/==/BPABellampalli (3)  11:08 11:09+3511:10+352 1m121269.189205mSCRTel:.08735 223298, Telangana
36/==/SKZRSirpur Kaghaznagar (3)X  11:35 11:36+3311:37+322 1m121307.648181mSCRAdilabad Dist., Telangana
37/==/BPQBalharshah Junction (5)X  13:05+2213:15+2210m--21377.443188mCRBallarpur. Ph : 07172 - 240341, Maharashtra
38/==/CDChandrapur Maharashtra (3)X  13:34+2313:35+241m--21391.188194mCRChandrapur 442401, Maharashtra
39/==/HGTHinganghat (3)  14:34 14:33+3514:35+401 2m121476.634228mCRHinganghat, Maharashtra
40/==/SEGMSewagram Junction (5)X  15:34+1815:35+211m121509.761279mCRWardha, Maharashtra
41/==/NGPNagpur Junction (8)  16:50+1917:00+2310m--21585.975314mCRNagpur 440001, Maharashtra
42/==/PARPandhurna (2)  18:24 18:23+2718:25+321 2m--21690.358481mCRDistt: Chhindwara, Madhya Pradesh
43/==/AMLAAmla Junction (5)X  19:31+2319:33+232m221753.992733mCRAmla Distt. Betul, Madhya Pradesh
44/==/BZUBetul (3)  19:49 19:48+4719:50+501 2m221776.857644mCRBetul, Madhya Pradesh
45/==/GDYAGhoradongri (3)O  20:29 20:28+5020:30+501 2m--21812.740 CRBetul, Madhya Pradesh
46/==/ETItarsi Junction (7)  22:15+1322:20+165m121883.152329mWCRItarsi 461111, Madhya Pradesh
47/==/BPLBhopal Junction (6)  00:05+800:10+85m431974.868497mWCRBhopal, Madhya Pradesh
48/==/SJPShujalpur (3)  01:22 01:21+2901:23+291 2m132055.259453mWRShujalpur, Madhya Pradesh
49/==/UJNUjjain Junction (8)03:10+103:30+420m632160.258492mWRUjjain 456001, Madhya Pradesh
50/--/DWXDewas Junction (2)  04:12+604:14+62m132200.638541mWRDewas, Madhya Pradesh
51/--/INDBIndore Junction BG (3)  05:15-2-432239.3-552mWRIndore 452001, Madhya Pradesh
Scroll to Top
Scroll to Bottom